Year,Month,Day,Hour,Minute,Value (Times are PST for temperature in C)
2015,06,14,00,00,14.80
2015,06,14,00,01,14.70
2015,06,14,00,02,14.70
2015,06,14,00,03,14.70
2015,06,14,00,04,14.60
2015,06,14,00,05,14.60
2015,06,14,00,06,14.60
2015,06,14,00,07,14.50
2015,06,14,00,08,14.50
2015,06,14,00,09,14.40
2015,06,14,00,10,14.40
2015,06,14,00,11,14.40
2015,06,14,00,12,14.30
2015,06,14,00,13,14.30
2015,06,14,00,14,14.30
2015,06,14,00,15,14.30
2015,06,14,00,16,14.20
2015,06,14,00,17,14.20
2015,06,14,00,18,14.20
2015,06,14,00,19,14.20
2015,06,14,00,20,14.10
2015,06,14,00,21,14.10
2015,06,14,00,22,14.10
2015,06,14,00,23,14.10
2015,06,14,00,24,14.00
2015,06,14,00,25,14.00
2015,06,14,00,26,14.00
2015,06,14,00,27,13.90
2015,06,14,00,28,13.90
2015,06,14,00,29,13.90
2015,06,14,00,30,13.90
2015,06,14,00,31,13.90
2015,06,14,00,32,13.90
2015,06,14,00,33,13.90
2015,06,14,00,34,13.80
2015,06,14,00,35,13.80
2015,06,14,00,36,13.80
2015,06,14,00,37,13.90
2015,06,14,00,38,13.90
2015,06,14,00,39,13.90
2015,06,14,00,40,13.90
2015,06,14,00,41,13.90
2015,06,14,00,42,13.90
2015,06,14,00,43,13.90
2015,06,14,00,44,13.90
2015,06,14,00,45,14.00
2015,06,14,00,46,14.00
2015,06,14,00,47,14.00
2015,06,14,00,48,14.10
2015,06,14,00,49,14.10
2015,06,14,00,50,14.10
2015,06,14,00,51,14.10
2015,06,14,00,52,14.10
2015,06,14,00,53,14.10
2015,06,14,00,54,14.10
2015,06,14,00,55,14.10
2015,06,14,00,56,14.10
2015,06,14,00,57,14.00
2015,06,14,00,58,14.00
2015,06,14,00,59,14.00
2015,06,14,01,00,14.00
2015,06,14,01,01,14.00
2015,06,14,01,02,14.00
2015,06,14,01,03,13.90
2015,06,14,01,04,13.90
2015,06,14,01,05,13.90
2015,06,14,01,06,13.90
2015,06,14,01,07,13.80
2015,06,14,01,08,13.80
2015,06,14,01,09,13.80
2015,06,14,01,10,13.80
2015,06,14,01,11,13.80
2015,06,14,01,12,13.80
2015,06,14,01,13,13.70
2015,06,14,01,14,13.70
2015,06,14,01,15,13.70
2015,06,14,01,16,13.60
2015,06,14,01,17,13.60
2015,06,14,01,18,13.60
2015,06,14,01,19,13.50
2015,06,14,01,20,13.50
2015,06,14,01,21,13.40
2015,06,14,01,22,13.40
2015,06,14,01,23,13.40
2015,06,14,01,24,13.40
2015,06,14,01,25,13.30
2015,06,14,01,26,13.30
2015,06,14,01,27,13.30
2015,06,14,01,28,13.30
2015,06,14,01,29,13.30
2015,06,14,01,30,13.20
2015,06,14,01,31,13.20
2015,06,14,01,32,13.20
2015,06,14,01,33,13.20
2015,06,14,01,34,13.20
2015,06,14,01,35,13.10
2015,06,14,01,36,13.10
2015,06,14,01,37,13.10
2015,06,14,01,38,13.10
2015,06,14,01,39,13.00
2015,06,14,01,40,13.00
2015,06,14,01,41,13.00
2015,06,14,01,42,13.00
2015,06,14,01,43,12.90
2015,06,14,01,44,12.90
2015,06,14,01,45,12.90
2015,06,14,01,46,12.90
2015,06,14,01,47,12.90
2015,06,14,01,48,12.90
2015,06,14,01,49,12.90
2015,06,14,01,50,12.80
2015,06,14,01,51,12.80
2015,06,14,01,52,12.80
2015,06,14,01,53,12.80
2015,06,14,01,54,12.80
2015,06,14,01,55,12.70
2015,06,14,01,56,12.70
2015,06,14,01,57,12.70
2015,06,14,01,58,12.60
2015,06,14,01,59,12.60
2015,06,14,02,00,12.60
2015,06,14,02,01,12.50
2015,06,14,02,02,12.50
2015,06,14,02,03,12.50
2015,06,14,02,04,12.40
2015,06,14,02,05,12.40
2015,06,14,02,06,12.40
2015,06,14,02,07,12.30
2015,06,14,02,08,12.30
2015,06,14,02,09,12.30
2015,06,14,02,10,12.30
2015,06,14,02,11,12.30
2015,06,14,02,12,12.30
2015,06,14,02,13,12.30
2015,06,14,02,14,12.30
2015,06,14,02,15,12.20
2015,06,14,02,16,12.20
2015,06,14,02,17,12.20
2015,06,14,02,18,12.20
2015,06,14,02,19,12.20
2015,06,14,02,20,12.10
2015,06,14,02,21,12.10
2015,06,14,02,22,12.10
2015,06,14,02,23,12.10
2015,06,14,02,24,12.10
2015,06,14,02,25,12.10
2015,06,14,02,26,12.00
2015,06,14,02,27,12.00
2015,06,14,02,28,12.00
2015,06,14,02,29,11.90
2015,06,14,02,30,11.90
2015,06,14,02,31,11.90
2015,06,14,02,32,11.90
2015,06,14,02,33,11.90
2015,06,14,02,34,11.90
2015,06,14,02,35,11.90
2015,06,14,02,36,11.80
2015,06,14,02,37,11.80
2015,06,14,02,38,11.80
2015,06,14,02,39,11.80
2015,06,14,02,40,11.80
2015,06,14,02,41,11.80
2015,06,14,02,42,11.80
2015,06,14,02,43,11.80
2015,06,14,02,44,11.80
2015,06,14,02,45,11.80
2015,06,14,02,46,11.80
2015,06,14,02,47,11.80
2015,06,14,02,48,11.80
2015,06,14,02,49,11.80
2015,06,14,02,50,11.80
2015,06,14,02,51,11.80
2015,06,14,02,52,11.80
2015,06,14,02,53,11.80
2015,06,14,02,54,11.80
2015,06,14,02,55,11.80
2015,06,14,02,56,11.80
2015,06,14,02,57,11.80
2015,06,14,02,58,11.80
2015,06,14,02,59,11.80
2015,06,14,03,00,11.80
2015,06,14,03,01,11.80
2015,06,14,03,02,11.80
2015,06,14,03,03,11.80
2015,06,14,03,04,11.80
2015,06,14,03,05,11.80
2015,06,14,03,06,11.80
2015,06,14,03,07,11.80
2015,06,14,03,08,11.80
2015,06,14,03,09,11.70
2015,06,14,03,10,11.70
2015,06,14,03,11,11.70
2015,06,14,03,12,11.70
2015,06,14,03,13,11.70
2015,06,14,03,14,11.70
2015,06,14,03,15,11.70
2015,06,14,03,16,11.70
2015,06,14,03,17,11.70
2015,06,14,03,18,11.60
2015,06,14,03,19,11.60
2015,06,14,03,20,11.60
2015,06,14,03,21,11.60
2015,06,14,03,22,11.60
2015,06,14,03,23,11.60
2015,06,14,03,24,11.60
2015,06,14,03,25,11.60
2015,06,14,03,26,11.70
2015,06,14,03,27,11.70
2015,06,14,03,28,11.70
2015,06,14,03,29,11.70
2015,06,14,03,30,11.80
2015,06,14,03,31,11.80
2015,06,14,03,32,11.80
2015,06,14,03,33,11.80
2015,06,14,03,34,11.80
2015,06,14,03,35,11.90
2015,06,14,03,36,11.90
2015,06,14,03,37,11.90
2015,06,14,03,38,11.90
2015,06,14,03,39,12.00
2015,06,14,03,40,12.00
2015,06,14,03,41,12.00
2015,06,14,03,42,12.00
2015,06,14,03,43,12.10
2015,06,14,03,44,12.10
2015,06,14,03,45,12.10
2015,06,14,03,46,12.10
2015,06,14,03,47,12.10
2015,06,14,03,48,12.00
2015,06,14,03,49,12.00
2015,06,14,03,50,12.00
2015,06,14,03,51,12.00
2015,06,14,03,52,12.00
2015,06,14,03,53,12.00
2015,06,14,03,54,12.00
2015,06,14,03,55,11.90
2015,06,14,03,56,11.90
2015,06,14,03,57,11.90
2015,06,14,03,58,11.90
2015,06,14,03,59,11.90
2015,06,14,04,00,11.90
2015,06,14,04,01,11.90
2015,06,14,04,02,11.90
2015,06,14,04,03,11.90
2015,06,14,04,04,11.90
2015,06,14,04,05,11.90
2015,06,14,04,06,11.90
2015,06,14,04,07,11.90
2015,06,14,04,08,11.90
2015,06,14,04,09,11.90
2015,06,14,04,10,11.90
2015,06,14,04,11,11.80
2015,06,14,04,12,11.80
2015,06,14,04,13,11.80
2015,06,14,04,14,11.80
2015,06,14,04,15,11.80
2015,06,14,04,16,11.80
2015,06,14,04,17,11.70
2015,06,14,04,18,11.70
2015,06,14,04,19,11.70
2015,06,14,04,20,11.70
2015,06,14,04,21,11.70
2015,06,14,04,22,11.60
2015,06,14,04,23,11.60
2015,06,14,04,24,11.60
2015,06,14,04,25,11.60
2015,06,14,04,26,11.60
2015,06,14,04,27,11.50
2015,06,14,04,28,11.50
2015,06,14,04,29,11.50
2015,06,14,04,30,11.40
2015,06,14,04,31,11.40
2015,06,14,04,32,11.40
2015,06,14,04,33,11.40
2015,06,14,04,34,11.40
2015,06,14,04,35,11.30
2015,06,14,04,36,11.30
2015,06,14,04,37,11.30
2015,06,14,04,38,11.30
2015,06,14,04,39,11.30
2015,06,14,04,40,11.20
2015,06,14,04,41,11.20
2015,06,14,04,42,11.20
2015,06,14,04,43,11.20
2015,06,14,04,44,11.20
2015,06,14,04,45,11.20
2015,06,14,04,46,11.20
2015,06,14,04,47,11.20
2015,06,14,04,48,11.20
2015,06,14,04,49,11.20
2015,06,14,04,50,11.20
2015,06,14,04,51,11.20
2015,06,14,04,52,11.20
2015,06,14,04,53,11.20
2015,06,14,04,54,11.20
2015,06,14,04,55,11.10
2015,06,14,04,56,11.10
2015,06,14,04,57,11.10
2015,06,14,04,58,11.10
2015,06,14,04,59,11.10
2015,06,14,05,00,11.10
2015,06,14,05,01,11.10
2015,06,14,05,02,11.10
2015,06,14,05,03,11.10
2015,06,14,05,04,11.00
2015,06,14,05,05,11.00
2015,06,14,05,06,11.00
2015,06,14,05,07,10.90
2015,06,14,05,08,10.90
2015,06,14,05,09,10.90
2015,06,14,05,10,10.90
2015,06,14,05,11,10.90
2015,06,14,05,12,10.90
2015,06,14,05,13,10.90
2015,06,14,05,14,10.80
2015,06,14,05,15,10.80
2015,06,14,05,16,10.80
2015,06,14,05,17,10.80
2015,06,14,05,18,10.80
2015,06,14,05,19,10.80
2015,06,14,05,20,10.70
2015,06,14,05,21,10.70
2015,06,14,05,22,10.70
2015,06,14,05,23,10.60
2015,06,14,05,24,10.60
2015,06,14,05,25,10.60
2015,06,14,05,26,10.60
2015,06,14,05,27,10.50
2015,06,14,05,28,10.50
2015,06,14,05,29,10.50
2015,06,14,05,30,10.50
2015,06,14,05,31,10.40
2015,06,14,05,32,10.40
2015,06,14,05,33,10.40
2015,06,14,05,34,10.40
2015,06,14,05,35,10.40
2015,06,14,05,36,10.40
2015,06,14,05,37,10.30
2015,06,14,05,38,10.30
2015,06,14,05,39,10.30
2015,06,14,05,40,10.30
2015,06,14,05,41,10.30
2015,06,14,05,42,10.30
2015,06,14,05,43,10.30
2015,06,14,05,44,10.30
2015,06,14,05,45,10.30
2015,06,14,05,46,10.30
2015,06,14,05,47,10.30
2015,06,14,05,48,10.30
2015,06,14,05,49,10.30
2015,06,14,05,50,10.30
2015,06,14,05,51,10.30
2015,06,14,05,52,10.30
2015,06,14,05,53,10.30
2015,06,14,05,54,10.40
2015,06,14,05,55,10.40
2015,06,14,05,56,10.50
2015,06,14,05,57,10.50
2015,06,14,05,58,10.60
2015,06,14,05,59,10.60
2015,06,14,06,00,10.70
2015,06,14,06,01,10.70
2015,06,14,06,02,10.80
2015,06,14,06,03,10.90
2015,06,14,06,04,10.90
2015,06,14,06,05,11.00
2015,06,14,06,06,11.10
2015,06,14,06,07,11.20
2015,06,14,06,08,11.20
2015,06,14,06,09,11.30
2015,06,14,06,10,11.30
2015,06,14,06,11,11.40
2015,06,14,06,12,11.40
2015,06,14,06,13,11.50
2015,06,14,06,14,11.60
2015,06,14,06,15,11.70
2015,06,14,06,16,11.70
2015,06,14,06,17,11.80
2015,06,14,06,18,11.80
2015,06,14,06,19,11.90
2015,06,14,06,20,12.00
2015,06,14,06,21,12.00
2015,06,14,06,22,12.10
2015,06,14,06,23,12.10
2015,06,14,06,24,12.20
2015,06,14,06,25,12.30
2015,06,14,06,26,12.30
2015,06,14,06,27,12.40
2015,06,14,06,28,12.40
2015,06,14,06,29,12.40
2015,06,14,06,30,12.50
2015,06,14,06,31,12.50
2015,06,14,06,32,12.60
2015,06,14,06,33,12.60
2015,06,14,06,34,12.70
2015,06,14,06,35,12.70
2015,06,14,06,36,12.70
2015,06,14,06,37,12.70
2015,06,14,06,38,12.80
2015,06,14,06,39,12.80
2015,06,14,06,40,12.90
2015,06,14,06,41,12.90
2015,06,14,06,42,13.00
2015,06,14,06,43,13.00
2015,06,14,06,44,13.10
2015,06,14,06,45,13.10
2015,06,14,06,46,13.20
2015,06,14,06,47,13.20
2015,06,14,06,48,13.30
2015,06,14,06,49,13.30
2015,06,14,06,50,13.40
2015,06,14,06,51,13.40
2015,06,14,06,52,13.50
2015,06,14,06,53,13.60
2015,06,14,06,54,13.60
2015,06,14,06,55,13.60
2015,06,14,06,56,13.60
2015,06,14,06,57,13.60
2015,06,14,06,58,13.50
2015,06,14,06,59,13.50
2015,06,14,07,00,13.50
2015,06,14,07,01,13.50
2015,06,14,07,02,13.60
2015,06,14,07,03,13.60
2015,06,14,07,04,13.60
2015,06,14,07,05,13.60
2015,06,14,07,06,13.60
2015,06,14,07,07,13.70
2015,06,14,07,08,13.70
2015,06,14,07,09,13.70
2015,06,14,07,10,13.70
2015,06,14,07,11,13.70
2015,06,14,07,12,13.70
2015,06,14,07,13,13.70
2015,06,14,07,14,13.70
2015,06,14,07,15,13.80
2015,06,14,07,16,13.80
2015,06,14,07,17,13.80
2015,06,14,07,18,13.80
2015,06,14,07,19,13.80
2015,06,14,07,20,13.80
2015,06,14,07,21,13.90
2015,06,14,07,22,13.90
2015,06,14,07,23,14.00
2015,06,14,07,24,14.10
2015,06,14,07,25,14.10
2015,06,14,07,26,14.20
2015,06,14,07,27,14.20
2015,06,14,07,28,14.30
2015,06,14,07,29,14.40
2015,06,14,07,30,14.40
2015,06,14,07,31,14.50
2015,06,14,07,32,14.60
2015,06,14,07,33,14.70
2015,06,14,07,34,14.80
2015,06,14,07,35,14.80
2015,06,14,07,36,14.90
2015,06,14,07,37,14.90
2015,06,14,07,38,15.00
2015,06,14,07,39,15.00
2015,06,14,07,40,15.10
2015,06,14,07,41,15.20
2015,06,14,07,42,15.20
2015,06,14,07,43,15.30
2015,06,14,07,44,15.30
2015,06,14,07,45,15.40
2015,06,14,07,46,15.40
2015,06,14,07,47,15.40
2015,06,14,07,48,15.40
2015,06,14,07,49,15.40
2015,06,14,07,50,15.40
2015,06,14,07,51,15.30
2015,06,14,07,52,15.30
2015,06,14,07,53,15.30
2015,06,14,07,54,15.30
2015,06,14,07,55,15.30
2015,06,14,07,56,15.30
2015,06,14,07,57,15.30
2015,06,14,07,58,15.30
2015,06,14,07,59,15.30
2015,06,14,08,00,15.40
2015,06,14,08,01,15.40
2015,06,14,08,02,15.50
2015,06,14,08,03,15.50
2015,06,14,08,04,15.60
2015,06,14,08,05,15.70
2015,06,14,08,06,15.70
2015,06,14,08,07,15.80
2015,06,14,08,08,15.80
2015,06,14,08,09,15.80
2015,06,14,08,10,15.80
2015,06,14,08,11,15.80
2015,06,14,08,12,15.80
2015,06,14,08,13,15.90
2015,06,14,08,14,15.90
2015,06,14,08,15,16.00
2015,06,14,08,16,16.00
2015,06,14,08,17,16.10
2015,06,14,08,18,16.20
2015,06,14,08,19,16.30
2015,06,14,08,20,16.40
2015,06,14,08,21,16.50
2015,06,14,08,22,16.50
2015,06,14,08,23,16.50
2015,06,14,08,24,16.40
2015,06,14,08,25,16.40
2015,06,14,08,26,16.30
2015,06,14,08,27,16.40
2015,06,14,08,28,16.50
2015,06,14,08,29,16.50
2015,06,14,08,30,16.50
2015,06,14,08,31,16.50
2015,06,14,08,32,16.50
2015,06,14,08,33,16.60
2015,06,14,08,34,16.60
2015,06,14,08,35,16.70
2015,06,14,08,36,16.70
2015,06,14,08,37,16.80
2015,06,14,08,38,16.80
2015,06,14,08,39,16.80
2015,06,14,08,40,16.90
2015,06,14,08,41,16.90
2015,06,14,08,42,17.00
2015,06,14,08,43,17.10
2015,06,14,08,44,17.10
2015,06,14,08,45,17.00
2015,06,14,08,46,17.00
2015,06,14,08,47,17.00
2015,06,14,08,48,16.90
2015,06,14,08,49,16.90
2015,06,14,08,50,16.80
2015,06,14,08,51,16.70
2015,06,14,08,52,16.60
2015,06,14,08,53,16.60
2015,06,14,08,54,16.60
2015,06,14,08,55,16.60
2015,06,14,08,56,16.70
2015,06,14,08,57,16.70
2015,06,14,08,58,16.80
2015,06,14,08,59,16.90
2015,06,14,09,00,17.00
2015,06,14,09,01,17.00
2015,06,14,09,02,17.10
2015,06,14,09,03,17.20
2015,06,14,09,04,17.20
2015,06,14,09,05,17.20
2015,06,14,09,06,17.20
2015,06,14,09,07,17.20
2015,06,14,09,08,17.30
2015,06,14,09,09,17.40
2015,06,14,09,10,17.40
2015,06,14,09,11,17.60
2015,06,14,09,12,17.60
2015,06,14,09,13,17.70
2015,06,14,09,14,17.80
2015,06,14,09,15,17.80
2015,06,14,09,16,17.80
2015,06,14,09,17,17.90
2015,06,14,09,18,17.90
2015,06,14,09,19,18.00
2015,06,14,09,20,18.10
2015,06,14,09,21,18.10
2015,06,14,09,22,18.20
2015,06,14,09,23,18.30
2015,06,14,09,24,18.40
2015,06,14,09,25,18.40
2015,06,14,09,26,18.50
2015,06,14,09,27,18.50
2015,06,14,09,28,18.50
2015,06,14,09,29,18.40
2015,06,14,09,30,18.20
2015,06,14,09,31,18.10
2015,06,14,09,32,18.00
2015,06,14,09,33,18.00
2015,06,14,09,34,17.90
2015,06,14,09,35,17.90
2015,06,14,09,36,17.90
2015,06,14,09,37,17.90
2015,06,14,09,38,17.90
2015,06,14,09,39,17.80
2015,06,14,09,40,17.80
2015,06,14,09,41,17.70
2015,06,14,09,42,17.60
2015,06,14,09,43,17.60
2015,06,14,09,44,17.60
2015,06,14,09,45,17.60
2015,06,14,09,46,17.70
2015,06,14,09,47,17.70
2015,06,14,09,48,17.60
2015,06,14,09,49,17.70
2015,06,14,09,50,17.70
2015,06,14,09,51,17.70
2015,06,14,09,52,17.80
2015,06,14,09,53,17.90
2015,06,14,09,54,18.00
2015,06,14,09,55,18.10
2015,06,14,09,56,18.20
2015,06,14,09,57,18.30
2015,06,14,09,58,18.30
2015,06,14,09,59,18.40
2015,06,14,10,00,18.40
2015,06,14,10,01,18.40
2015,06,14,10,02,18.40
2015,06,14,10,03,18.40
2015,06,14,10,04,18.40
2015,06,14,10,05,18.30
2015,06,14,10,06,18.30
2015,06,14,10,07,18.30
2015,06,14,10,08,18.30
2015,06,14,10,09,18.30
2015,06,14,10,10,18.20
2015,06,14,10,11,18.20
2015,06,14,10,12,18.20
2015,06,14,10,13,18.20
2015,06,14,10,14,18.20
2015,06,14,10,15,18.20
2015,06,14,10,16,18.20
2015,06,14,10,17,18.10
2015,06,14,10,18,18.10
2015,06,14,10,19,18.10
2015,06,14,10,20,18.20
2015,06,14,10,21,18.20
2015,06,14,10,22,18.20
2015,06,14,10,23,18.10
2015,06,14,10,24,18.20
2015,06,14,10,25,18.20
2015,06,14,10,26,18.20
2015,06,14,10,27,18.20
2015,06,14,10,28,18.20
2015,06,14,10,29,18.20
2015,06,14,10,30,18.10
2015,06,14,10,31,18.10
2015,06,14,10,32,18.10
2015,06,14,10,33,18.00
2015,06,14,10,34,18.00
2015,06,14,10,35,18.00
2015,06,14,10,36,18.00
2015,06,14,10,37,18.10
2015,06,14,10,38,18.10
2015,06,14,10,39,18.00
2015,06,14,10,40,18.00
2015,06,14,10,41,18.10
2015,06,14,10,42,18.20
2015,06,14,10,43,18.20
2015,06,14,10,44,18.30
2015,06,14,10,45,18.40
2015,06,14,10,46,18.40
2015,06,14,10,47,18.50
2015,06,14,10,48,18.60
2015,06,14,10,49,18.60
2015,06,14,10,50,18.60
2015,06,14,10,51,18.60
2015,06,14,10,52,18.60
2015,06,14,10,53,18.60
2015,06,14,10,54,18.60
2015,06,14,10,55,18.60
2015,06,14,10,56,18.60
2015,06,14,10,57,18.60
2015,06,14,10,58,18.70
2015,06,14,10,59,18.80
2015,06,14,11,00,18.80
2015,06,14,11,01,19.00
2015,06,14,11,02,19.00
2015,06,14,11,03,19.10
2015,06,14,11,04,19.20
2015,06,14,11,05,19.20
2015,06,14,11,06,19.20
2015,06,14,11,07,19.20
2015,06,14,11,08,19.20
2015,06,14,11,09,19.20
2015,06,14,11,10,19.20
2015,06,14,11,11,19.10
2015,06,14,11,12,19.10
2015,06,14,11,13,19.10
2015,06,14,11,14,19.20
2015,06,14,11,15,19.20
2015,06,14,11,16,19.30
2015,06,14,11,17,19.40
2015,06,14,11,18,19.50
2015,06,14,11,19,19.60
2015,06,14,11,20,19.70
2015,06,14,11,21,19.70
2015,06,14,11,22,19.70
2015,06,14,11,23,19.80
2015,06,14,11,24,19.80
2015,06,14,11,25,19.80
2015,06,14,11,26,19.70
2015,06,14,11,27,19.60
2015,06,14,11,28,19.60
2015,06,14,11,29,19.60
2015,06,14,11,30,19.50
2015,06,14,11,31,19.50
2015,06,14,11,32,19.50
2015,06,14,11,33,19.50
2015,06,14,11,34,19.60
2015,06,14,11,35,19.60
2015,06,14,11,36,19.60
2015,06,14,11,37,19.60
2015,06,14,11,38,19.60
2015,06,14,11,39,19.60
2015,06,14,11,40,19.70
2015,06,14,11,41,19.70
2015,06,14,11,42,19.70
2015,06,14,11,43,19.70
2015,06,14,11,44,19.70
2015,06,14,11,45,19.70
2015,06,14,11,46,19.70
2015,06,14,11,47,19.70
2015,06,14,11,48,19.70
2015,06,14,11,49,19.70
2015,06,14,11,50,19.70
2015,06,14,11,51,19.80
2015,06,14,11,52,19.80
2015,06,14,11,53,19.90
2015,06,14,11,54,20.00
2015,06,14,11,55,20.00
2015,06,14,11,56,20.10
2015,06,14,11,57,20.10
2015,06,14,11,58,20.20
2015,06,14,11,59,20.30
2015,06,14,12,00,20.30
2015,06,14,12,01,20.40
2015,06,14,12,02,20.40
2015,06,14,12,03,20.50
2015,06,14,12,04,20.50
2015,06,14,12,05,20.60
2015,06,14,12,06,20.60
2015,06,14,12,07,20.70
2015,06,14,12,08,20.70
2015,06,14,12,09,20.70
2015,06,14,12,10,20.80
2015,06,14,12,11,20.80
2015,06,14,12,12,20.80
2015,06,14,12,13,20.80
2015,06,14,12,14,20.80
2015,06,14,12,15,20.80
2015,06,14,12,16,20.80
2015,06,14,12,17,20.80
2015,06,14,12,18,20.70
2015,06,14,12,19,20.70
2015,06,14,12,20,20.70
2015,06,14,12,21,20.70
2015,06,14,12,22,20.70
2015,06,14,12,23,20.80
2015,06,14,12,24,20.80
2015,06,14,12,25,20.90
2015,06,14,12,26,20.90
2015,06,14,12,27,21.00
2015,06,14,12,28,21.00
2015,06,14,12,29,21.10
2015,06,14,12,30,21.10
2015,06,14,12,31,21.10
2015,06,14,12,32,21.10
2015,06,14,12,33,21.20
2015,06,14,12,34,21.20
2015,06,14,12,35,21.20
2015,06,14,12,36,21.20
2015,06,14,12,37,21.20
2015,06,14,12,38,21.20
2015,06,14,12,39,21.20
2015,06,14,12,40,21.20
2015,06,14,12,41,21.20
2015,06,14,12,42,21.20
2015,06,14,12,43,21.30
2015,06,14,12,44,21.30
2015,06,14,12,45,21.30
2015,06,14,12,46,21.30
2015,06,14,12,47,21.30
2015,06,14,12,48,21.30
2015,06,14,12,49,21.30
2015,06,14,12,50,21.40
2015,06,14,12,51,21.40
2015,06,14,12,52,21.40
2015,06,14,12,53,21.40
2015,06,14,12,54,21.40
2015,06,14,12,55,21.50
2015,06,14,12,56,21.50
2015,06,14,12,57,21.40
2015,06,14,12,58,21.40
2015,06,14,12,59,21.50
2015,06,14,13,00,21.50
2015,06,14,13,01,21.60
2015,06,14,13,02,21.70
2015,06,14,13,03,21.70
2015,06,14,13,04,21.70
2015,06,14,13,05,21.80
2015,06,14,13,06,21.80
2015,06,14,13,07,21.80
2015,06,14,13,08,21.80
2015,06,14,13,09,21.80
2015,06,14,13,10,21.70
2015,06,14,13,11,21.70
2015,06,14,13,12,21.70
2015,06,14,13,13,21.70
2015,06,14,13,14,21.70
2015,06,14,13,15,21.70
2015,06,14,13,16,21.70
2015,06,14,13,17,21.70
2015,06,14,13,18,21.80
2015,06,14,13,19,21.80
2015,06,14,13,20,21.80
2015,06,14,13,21,21.90
2015,06,14,13,22,21.90
2015,06,14,13,23,21.90
2015,06,14,13,24,21.90
2015,06,14,13,25,21.90
2015,06,14,13,26,21.90
2015,06,14,13,27,21.90
2015,06,14,13,28,21.90
2015,06,14,13,29,21.90
2015,06,14,13,30,21.90
2015,06,14,13,31,21.90
2015,06,14,13,32,21.90
2015,06,14,13,33,21.90
2015,06,14,13,34,21.80
2015,06,14,13,35,21.90
2015,06,14,13,36,21.90
2015,06,14,13,37,21.90
2015,06,14,13,38,21.90
2015,06,14,13,39,21.90
2015,06,14,13,40,22.00
2015,06,14,13,41,22.00
2015,06,14,13,42,22.00
2015,06,14,13,43,22.00
2015,06,14,13,44,21.90
2015,06,14,13,45,21.80
2015,06,14,13,46,21.70
2015,06,14,13,47,21.60
2015,06,14,13,48,21.60
2015,06,14,13,49,21.70
2015,06,14,13,50,21.70
2015,06,14,13,51,21.70
2015,06,14,13,52,21.70
2015,06,14,13,53,21.80
2015,06,14,13,54,21.80
2015,06,14,13,55,21.80
2015,06,14,13,56,21.80
2015,06,14,13,57,21.80
2015,06,14,13,58,21.80
2015,06,14,13,59,21.80
2015,06,14,14,00,21.80
2015,06,14,14,01,21.80
2015,06,14,14,02,21.80
2015,06,14,14,03,21.70
2015,06,14,14,04,21.60
2015,06,14,14,05,21.60
2015,06,14,14,06,21.60
2015,06,14,14,07,21.60
2015,06,14,14,08,21.70
2015,06,14,14,09,21.70
2015,06,14,14,10,21.80
2015,06,14,14,11,21.80
2015,06,14,14,12,21.90
2015,06,14,14,13,22.00
2015,06,14,14,14,22.00
2015,06,14,14,15,22.10
2015,06,14,14,16,22.20
2015,06,14,14,17,22.20
2015,06,14,14,18,22.20
2015,06,14,14,19,22.20
2015,06,14,14,20,22.20
2015,06,14,14,21,22.30
2015,06,14,14,22,22.30
2015,06,14,14,23,22.40
2015,06,14,14,24,22.40
2015,06,14,14,25,22.50
2015,06,14,14,26,22.50
2015,06,14,14,27,22.60
2015,06,14,14,28,22.70
2015,06,14,14,29,22.80
2015,06,14,14,30,22.90
2015,06,14,14,31,22.90
2015,06,14,14,32,23.00
2015,06,14,14,33,23.10
2015,06,14,14,34,23.00
2015,06,14,14,35,23.00
2015,06,14,14,36,23.00
2015,06,14,14,37,22.90
2015,06,14,14,38,23.00
2015,06,14,14,39,23.00
2015,06,14,14,40,23.10
2015,06,14,14,41,23.20
2015,06,14,14,42,23.30
2015,06,14,14,43,23.30
2015,06,14,14,44,23.30
2015,06,14,14,45,23.30
2015,06,14,14,46,23.30
2015,06,14,14,47,23.30
2015,06,14,14,48,23.30
2015,06,14,14,49,23.40
2015,06,14,14,50,23.40
2015,06,14,14,51,23.40
2015,06,14,14,52,23.40
2015,06,14,14,53,23.40
2015,06,14,14,54,23.50
2015,06,14,14,55,23.60
2015,06,14,14,56,23.70
2015,06,14,14,57,23.80
2015,06,14,14,58,23.80
2015,06,14,14,59,23.80
2015,06,14,15,00,23.80
2015,06,14,15,01,23.80
2015,06,14,15,02,23.90
2015,06,14,15,03,24.10
2015,06,14,15,04,24.20
2015,06,14,15,05,24.30
2015,06,14,15,06,24.30
2015,06,14,15,07,24.30
2015,06,14,15,08,24.30
2015,06,14,15,09,24.30
2015,06,14,15,10,24.30
2015,06,14,15,11,24.20
2015,06,14,15,12,24.30
2015,06,14,15,13,24.30
2015,06,14,15,14,24.30
2015,06,14,15,15,24.30
2015,06,14,15,16,24.30
2015,06,14,15,17,24.30
2015,06,14,15,18,24.30
2015,06,14,15,19,24.30
2015,06,14,15,20,24.20
2015,06,14,15,21,24.20
2015,06,14,15,22,24.20
2015,06,14,15,23,24.20
2015,06,14,15,24,24.30
2015,06,14,15,25,24.30
2015,06,14,15,26,24.40
2015,06,14,15,27,24.40
2015,06,14,15,28,24.40
2015,06,14,15,29,24.40
2015,06,14,15,30,24.40
2015,06,14,15,31,24.50
2015,06,14,15,32,24.50
2015,06,14,15,33,24.60
2015,06,14,15,34,24.60
2015,06,14,15,35,24.50
2015,06,14,15,36,24.40
2015,06,14,15,37,24.40
2015,06,14,15,38,24.50
2015,06,14,15,39,24.50
2015,06,14,15,40,24.60
2015,06,14,15,41,24.60
2015,06,14,15,42,24.70
2015,06,14,15,43,24.80
2015,06,14,15,44,24.80
2015,06,14,15,45,24.80
2015,06,14,15,46,24.80
2015,06,14,15,47,24.90
2015,06,14,15,48,24.90
2015,06,14,15,49,24.90
2015,06,14,15,50,24.90
2015,06,14,15,51,25.00
2015,06,14,15,52,25.00
2015,06,14,15,53,25.10
2015,06,14,15,54,25.10
2015,06,14,15,55,25.10
2015,06,14,15,56,25.20
2015,06,14,15,57,25.20
2015,06,14,15,58,25.20
2015,06,14,15,59,25.10
2015,06,14,16,00,25.10
2015,06,14,16,01,25.00
2015,06,14,16,02,25.00
2015,06,14,16,03,24.90
2015,06,14,16,04,25.00
2015,06,14,16,05,25.00
2015,06,14,16,06,25.00
2015,06,14,16,07,24.90
2015,06,14,16,08,24.90
2015,06,14,16,09,25.00
2015,06,14,16,10,25.00
2015,06,14,16,11,24.90
2015,06,14,16,12,24.90
2015,06,14,16,13,24.90
2015,06,14,16,14,24.90
2015,06,14,16,15,24.90
2015,06,14,16,16,24.90
2015,06,14,16,17,25.00
2015,06,14,16,18,25.00
2015,06,14,16,19,25.10
2015,06,14,16,20,25.20
2015,06,14,16,21,25.10
2015,06,14,16,22,25.00
2015,06,14,16,23,24.90
2015,06,14,16,24,24.90
2015,06,14,16,25,24.90
2015,06,14,16,26,24.80
2015,06,14,16,27,24.80
2015,06,14,16,28,24.70
2015,06,14,16,29,24.70
2015,06,14,16,30,24.70
2015,06,14,16,31,24.70
2015,06,14,16,32,24.70
2015,06,14,16,33,24.70
2015,06,14,16,34,24.80
2015,06,14,16,35,24.80
2015,06,14,16,36,24.70
2015,06,14,16,37,24.70
2015,06,14,16,38,24.70
2015,06,14,16,39,24.70
2015,06,14,16,40,24.70
2015,06,14,16,41,24.70
2015,06,14,16,42,24.70
2015,06,14,16,43,24.70
2015,06,14,16,44,24.70
2015,06,14,16,45,24.70
2015,06,14,16,46,24.70
2015,06,14,16,47,24.70
2015,06,14,16,48,24.60
2015,06,14,16,49,24.60
2015,06,14,16,50,24.70
2015,06,14,16,51,24.70
2015,06,14,16,52,24.80
2015,06,14,16,53,24.80
2015,06,14,16,54,24.90
2015,06,14,16,55,24.90
2015,06,14,16,56,24.90
2015,06,14,16,57,24.80
2015,06,14,16,58,24.80
2015,06,14,16,59,24.80
2015,06,14,17,00,24.80
2015,06,14,17,01,24.80
2015,06,14,17,02,24.70
2015,06,14,17,03,24.70
2015,06,14,17,04,24.70
2015,06,14,17,05,24.70
2015,06,14,17,06,24.60
2015,06,14,17,07,24.60
2015,06,14,17,08,24.60
2015,06,14,17,09,24.60
2015,06,14,17,10,24.60
2015,06,14,17,11,24.70
2015,06,14,17,12,24.70
2015,06,14,17,13,24.60
2015,06,14,17,14,24.50
2015,06,14,17,15,24.50
2015,06,14,17,16,24.40
2015,06,14,17,17,24.40
2015,06,14,17,18,24.40
2015,06,14,17,19,24.50